| time (UTC) | temp F | wind direction | speed MPH | gust MPH | rain 1hr in | rain 24hr in | rain mn in | humidity % | barometer mb |
| 20260506113100 | 51 | 240 | 3.0 | 11.0 | 0.03 | 0.10 | 0.04 | 1 | 1004.7 |
| 20260506111558 | 51 | 287 | 2.0 | 7.0 | 0.02 | 0.09 | 0.02 | 1 | 1004.6 |
| 20260506110049 | 52 | 314 | 0.0 | 3.0 | 0.02 | 0.08 | 0.02 | 1 | 1004.6 |
| 20260506103042 | 52 | 13 | 2.0 | 5.0 | 0.01 | 0.07 | 0.01 | 1 | 1004.5 |
| 20260506101537 | 53 | 27 | 3.0 | 6.0 | 0.01 | 0.07 | 0.01 | 1 | 1004.4 |
| 20260506100032 | 52 | 35 | 4.0 | 6.0 | 0.00 | 0.06 | 0.00 | 1 | 1004.3 |
| 20260506093034 | 52 | 24 | 0.0 | 4.0 | 0.00 | 0.06 | 0.00 | 1 | 1004.5 |
| 20260506091526 | 52 | 40 | 1.0 | 3.0 | 0.00 | 0.06 | 0.00 | 1 | 1004.4 |
| 20260506090023 | 52 | 22 | 3.0 | 5.0 | 0.00 | 0.06 | 0.00 | 1 | 1004.2 |
| 20260506083009 | 52 | 57 | 1.0 | 4.0 | 0.00 | 0.06 | 0.00 | 1 | 1004.2 |
| 20260506081505 | 52 | 50 | 1.0 | 4.0 | 0.00 | 0.06 | 0.00 | 2 | 1004.3 |
| 20260506073105 | 52 | 93 | 0.0 | 3.0 | 0.00 | 0.06 | 0.00 | 1 | 1004.3 |
| 20260506071550 | 52 | 159 | 1.0 | 6.0 | 0.00 | 0.06 | 0.00 | 1 | 1004.4 |
| 20260506061533 | 50 | 325 | 0.0 | 1.0 | 0.00 | 0.06 | 0.00 | 1 | 1004.3 |
| 20260506043006 | 47 | 302 | 1.0 | 4.0 | 0.00 | 0.06 | 0.00 | 1 | 1004.4 |
| 20260506041502 | 47 | 268 | 1.0 | 6.0 | 0.00 | 0.06 | 0.00 | 1 | 1004.3 |
| 20260506040057 | 48 | 274 | 0.0 | 1.0 | 0.00 | 0.06 | 0.00 | 1 | 1004.5 |
| 20260506033108 | 48 | 283 | 2.0 | 5.0 | 0.00 | 0.06 | 0.00 | 1 | 1004.8 |
| 20260506031552 | 48 | 261 | 0.0 | 4.0 | 0.00 | 0.06 | 0.00 | 1 | 1005.1 |
| 20260506030056 | 48 | 249 | 0.0 | 3.0 | 0.00 | 0.06 | 0.00 | 1 | 1005.2 |
| 20260506023033 | 48 | 251 | 0.0 | 3.0 | 0.00 | 0.06 | 0.00 | 1 | 1005.6 |
| 20260506021529 | 49 | 251 | 1.0 | 2.0 | 0.00 | 0.06 | 0.00 | 1 | 1005.6 |
| 20260506020025 | 49 | 284 | 0.0 | 2.0 | 0.00 | 0.06 | 0.00 | 1 | 1005.8 |
| 20260506013017 | 50 | 106 | 0.0 | 3.0 | 0.00 | 0.06 | 0.00 | 1 | 1006.1 |
| 20260506011532 | 50 | 285 | 1.0 | 7.0 | 0.00 | 0.06 | 0.00 | 1 | 1006.1 |
| 20260506010009 | 50 | 254 | 2.0 | 6.0 | 0.00 | 0.06 | 0.00 | 1 | 1006.4 |
| 20260506003002 | 50 | 263 | 0.0 | 4.0 | 0.00 | 0.06 | 0.00 | 1 | 1006.5 |
| 20260506001601 | 49 | 218 | 1.0 | 3.0 | 0.00 | 0.06 | 0.00 | 1 | 1006.9 |
| 20260506000057 | 49 | 232 | 2.0 | 5.0 | 0.00 | 0.06 | 0.00 | 1 | 1007.3 |
| 20260505234648 | 49 | 219 | 1.0 | 3.0 | 0.00 | 0.06 | 0.00 | 1 | 1007.1 |
| 20260505233047 | 49 | 240 | 1.0 | 3.0 | 0.00 | 0.06 | 0.00 | 1 | 1007.1 |
| 20260505231544 | 50 | 267 | 1.0 | 4.0 | 0.00 | 0.06 | 0.00 | 1 | 1007.2 |
| 20260505230037 | 50 | 218 | 0.0 | 4.0 | 0.00 | 0.06 | 0.00 | 1 | 1007.4 |
| 20260505224636 | 51 | 243 | 3.0 | 9.0 | 0.00 | 0.06 | 0.00 | 1 | 1007.4 |
| 20260505223032 | 51 | 239 | 1.0 | 4.0 | 0.00 | 0.06 | 0.00 | 1 | 1007.4 |
| 20260505221524 | 51 | 217 | 0.0 | 6.0 | 0.00 | 0.06 | 0.00 | 1 | 1007.3 |
| 20260505220042 | 50 | 250 | 0.0 | 7.0 | 0.00 | 0.06 | 0.00 | 1 | 1007.4 |
| 20260505214621 | 50 | 243 | 2.0 | 6.0 | 0.00 | 0.06 | 0.06 | 1 | 1007.8 |
| 20260505213022 | 51 | 241 | 2.0 | 5.0 | 0.00 | 0.06 | 0.06 | 1 | 1007.8 |
| 20260505211618 | 50 | 223 | 3.0 | 7.0 | 0.00 | 0.06 | 0.06 | 1 | 1008.0 |
| 20260505210018 | 50 | 229 | 4.0 | 7.0 | 0.00 | 0.06 | 0.06 | 1 | 1007.9 |
| 20260505204618 | 50 | 231 | 2.0 | 4.0 | 0.00 | 0.06 | 0.06 | 1 | 1007.8 |
| 20260505203021 | 50 | 231 | 1.0 | 7.0 | 0.00 | 0.06 | 0.06 | 1 | 1007.9 |
| 20260505201519 | 49 | 241 | 1.0 | 5.0 | 0.00 | 0.06 | 0.06 | 1 | 1007.7 |
| 20260505200019 | 49 | 250 | 2.0 | 7.0 | 0.00 | 0.06 | 0.06 | 1 | 1007.7 |
| 20260505194618 | 49 | 241 | 2.0 | 8.0 | 0.00 | 0.06 | 0.06 | 1 | 1007.5 |
| 20260505193025 | 50 | 248 | 4.0 | 8.0 | 0.00 | 0.06 | 0.06 | 1 | 1007.3 |
| 20260505191519 | 50 | 236 | 3.0 | 8.0 | 0.00 | 0.06 | 0.06 | 1 | 1007.2 |
| 20260505190011 | 50 | 235 | 4.0 | 9.0 | 0.00 | 0.06 | 0.06 | 1 | 1007.1 |
| 20260505184607 | 50 | 245 | 3.0 | 7.0 | 0.00 | 0.06 | 0.06 | 1 | 1007.0 |
| 20260505183005 | 51 | 205 | 3.0 | 5.0 | 0.00 | 0.06 | 0.06 | 1 | 1007.0 |
| 20260505181504 | 51 | 218 | 0.0 | 6.0 | 0.00 | 0.06 | 0.06 | 1 | 1007.2 |
| 20260505180004 | 51 | 239 | 4.0 | 7.0 | 0.01 | 0.06 | 0.06 | 1 | 1007.0 |
| 20260505174600 | 51 | 198 | 2.0 | 6.0 | 0.01 | 0.06 | 0.06 | 1 | 1007.2 |
| 20260505173100 | 52 | 192 | 2.0 | 8.0 | 0.01 | 0.06 | 0.06 | 1 | 1007.3 |
| 20260505171555 | 52 | 215 | 2.0 | 4.0 | 0.02 | 0.06 | 0.06 | 1 | 1007.0 |
| 20260505170050 | 52 | 218 | 2.0 | 5.0 | 0.04 | 0.06 | 0.06 | 1 | 1007.0 |
| 20260505164556 | 52 | 158 | 1.0 | 3.0 | 0.05 | 0.06 | 0.06 | 1 | 1006.7 |
| 20260505163044 | 51 | 216 | 0.0 | 3.0 | 0.06 | 0.06 | 0.06 | 1 | 1006.6 |
| 20260505161549 | 51 | 249 | 2.0 | 10.0 | 0.06 | 0.06 | 0.06 | 1 | 1006.6 |
| 20260505153025 | 54 | 283 | 5.0 | 13.0 | 0.00 | 0.00 | 0.00 | 18 | 1006.0 |
| 20260505151520 | 56 | 287 | 3.0 | 12.0 | 0.00 | 0.00 | 0.00 | 35 | 1005.8 |
| 20260505124547 | 57 | 45 | 3.0 | 5.0 | 0.00 | 0.00 | 0.00 | 1 | 1006.0 |
| 20260505123038 | 57 | 35 | 2.0 | 8.0 | 0.00 | 0.00 | 0.00 | 1 | 1006.1 |
| 20260505121535 | 57 | 95 | 2.0 | 5.0 | 0.00 | 0.00 | 0.00 | 1 | 1005.9 |
| 20260505120037 | 56 | 40 | 2.0 | 4.0 | 0.00 | 0.00 | 0.00 | 1 | 1006.2 |
| 20260505114525 | 55 | 16 | 1.0 | 5.0 | 0.00 | 0.00 | 0.00 | 1 | 1006.3 |